When you browse on this site, cookies collect data to enhance your experience and personalize the content and advertising you see.
Visit our Privacy Policy to learn more. By continuing to use the site, you agree to this use of cookies and data.
  • In Hungary
  • List of Countries
  • For 7 days
  • Water Temperature
  • Satellite Maps
  • Weather Map
  • News
  • Weather Widgets
  • user-avatar
    Login

    Hourly Weather Kashmar

    Today, 15 December, Saturday

    Time Temperature Precipitation Wind Pressure Humidity
    00:00 +8°C° 0 mm 3 mps 655 mmHg 39%
    01:00 +7°C° 0 mm 3 mps 655 mmHg 38%
    02:00 +7°C° 0 mm 3 mps 655 mmHg 39%
    03:00 +7°C° 0 mm 3 mps 654 mmHg 39%
    04:00 +5°C° 0 mm 3 mps 654 mmHg 39%
    05:00 +6°C° 0 mm 2 mps 654 mmHg 40%
    06:00 +6°C° 0 mm 2 mps 654 mmHg 42%
    07:00 +5°C° 0 mm 2 mps 654 mmHg 43%
    08:00 +7°C° 0 mm 2 mps 655 mmHg 41%
    09:00 +8°C° 0 mm 2 mps 655 mmHg 38%
    10:00 +9°C° 0 mm 2 mps 656 mmHg 36%
    11:00 +11°C° 0 mm 1 mps 656 mmHg 34%
    12:00 +11°C° 0 mm 1 mps 656 mmHg 33%
    13:00 +12°C° 0 mm 1 mps 656 mmHg 32%
    14:00 +12°C° 0 mm 1 mps 656 mmHg 32%
    15:00 +11°C° 0 mm 0 mps 656 mmHg 33%
    16:00 +11°C° 0 mm 0 mps 656 mmHg 33%
    17:00 +10°C° 0 mm 0 mps 656 mmHg 38%
    18:00 +9°C° 0 mm 0 mps 656 mmHg 43%
    19:00 +9°C° 0 mm 1 mps 657 mmHg 47%
    20:00 +9°C° 0 mm 1 mps 657 mmHg 47%
    21:00 +8°C° 0 mm 1 mps 657 mmHg 47%
    22:00 +8°C° 0 mm 1 mps 657 mmHg 47%
    23:00 +8°C° 0 mm 1 mps 657 mmHg 47%

    Tomorrow, 16 December, Sunday

    Time Temperature Precipitation Wind Pressure Humidity
    00:00 +8°C° 0 mm 1 mps 657 mmHg 47%
    01:00 +8°C° 0 mm 1 mps 657 mmHg 46%
    02:00 +7°C° 0 mm 1 mps 657 mmHg 46%
    03:00 +7°C° 0 mm 1 mps 657 mmHg 45%
    04:00 +6°C° 0 mm 2 mps 657 mmHg 45%
    05:00 +6°C° 0 mm 2 mps 657 mmHg 45%
    06:00 +5°C° 0 mm 2 mps 657 mmHg 46%
    07:00 +5°C° 0 mm 2 mps 657 mmHg 47%
    08:00 +5°C° 0 mm 3 mps 658 mmHg 44%
    09:00 +8°C° 0 mm 3 mps 658 mmHg 41%
    10:00 +9°C° 0 mm 3 mps 659 mmHg 39%
    11:00 +9°C° 0 mm 3 mps 658 mmHg 37%
    12:00 +10°C° 0 mm 3 mps 658 mmHg 35%
    13:00 +11°C° 0 mm 3 mps 658 mmHg 34%
    14:00 +11°C° 0 mm 3 mps 657 mmHg 34%
    15:00 +12°C° 0 mm 2 mps 657 mmHg 35%
    16:00 +12°C° 0 mm 2 mps 657 mmHg 35%
    17:00 +11°C° 0 mm 1 mps 657 mmHg 40%
    18:00 +9°C° 0 mm 1 mps 657 mmHg 45%
    19:00 +8°C° 0 mm 1 mps 656 mmHg 50%
    20:00 +8°C° 0 mm 1 mps 656 mmHg 51%
    21:00 +8°C° 0 mm 1 mps 656 mmHg 51%
    22:00 +6°C° 0 mm 0 mps 656 mmHg 52%
    23:00 +6°C° 0 mm 0 mps 656 mmHg 52%

    Day after tomorrow, 17 December, Monday

    Time Temperature Precipitation Wind Pressure Humidity
    00:00 +5°C° 0 mm 0 mps 656 mmHg 52%
    01:00 +5°C° 0 mm 0 mps 656 mmHg 52%
    02:00 +5°C° 0 mm 0 mps 656 mmHg 51%
    03:00 +5°C° 0 mm 0 mps 656 mmHg 51%
    04:00 +5°C° 0 mm 0 mps 655 mmHg 50%
    05:00 +4°C° 0 mm 0 mps 656 mmHg 50%
    06:00 +4°C° 0 mm 0 mps 656 mmHg 50%
    07:00 +4°C° 0 mm 0 mps 656 mmHg 49%
    08:00 +6°C° 0 mm 0 mps 656 mmHg 44%
    09:00 +9°C° 0 mm 1 mps 657 mmHg 38%
    10:00 +10°C° 0 mm 1 mps 658 mmHg 33%
    11:00 +11°C° 0 mm 1 mps 657 mmHg 31%
    12:00 +12°C° 0 mm 1 mps 657 mmHg 29%
    13:00 +12°C° 0 mm 1 mps 657 mmHg 27%
    14:00 +12°C° 0 mm 1 mps 657 mmHg 28%
    15:00 +12°C° 0 mm 1 mps 656 mmHg 28%
    16:00 +12°C° 0 mm 1 mps 656 mmHg 29%
    17:00 +11°C° 0 mm 1 mps 656 mmHg 33%
    18:00 +10°C° 0 mm 1 mps 656 mmHg 37%
    19:00 +9°C° 0 mm 1 mps 656 mmHg 41%
    20:00 +9°C° 0 mm 1 mps 655 mmHg 40%
    21:00 +8°C° 0 mm 1 mps 655 mmHg 39%
    22:00 +7°C° 0 mm 2 mps 655 mmHg 38%
    23:00 +7°C° 0 mm 2 mps 655 mmHg 38%

    18 December, Tuesday

    Time Temperature Precipitation Wind Pressure Humidity
    00:00 +7°C° 0 mm 2 mps 655 mmHg 38%
    01:00 +7°C° 0 mm 2 mps 654 mmHg 38%
    02:00 +6°C° 0 mm 2 mps 654 mmHg 38%
    03:00 +6°C° 0 mm 2 mps 654 mmHg 38%
    04:00 +6°C° 0 mm 2 mps 654 mmHg 38%
    05:00 +6°C° 0 mm 2 mps 654 mmHg 38%
    06:00 +6°C° 0 mm 2 mps 654 mmHg 38%
    07:00 +6°C° 0 mm 2 mps 654 mmHg 39%
    08:00 +8°C° 0 mm 3 mps 654 mmHg 36%
    09:00 +9°C° 0 mm 3 mps 654 mmHg 34%
    10:00 +10°C° 0 mm 3 mps 655 mmHg 31%
    11:00 +11°C° 0 mm 4 mps 654 mmHg 30%
    12:00 +12°C° 0 mm 4 mps 654 mmHg 29%
    13:00 +12°C° 0 mm 4 mps 653 mmHg 28%
    14:00 +12°C° 0 mm 4 mps 653 mmHg 29%
    15:00 +12°C° 0 mm 4 mps 652 mmHg 30%
    16:00 +12°C° 0 mm 4 mps 652 mmHg 31%
    17:00 +11°C° 0 mm 4 mps 652 mmHg 34%
    18:00 +10°C° 0 mm 3 mps 652 mmHg 37%
    19:00 +9°C° 0 mm 3 mps 651 mmHg 39%
    20:00 +9°C° 0 mm 3 mps 651 mmHg 38%
    21:00 +8°C° 0 mm 3 mps 651 mmHg 36%
    22:00 +8°C° 0 mm 3 mps 651 mmHg 35%
    23:00 +8°C° 0 mm 3 mps 651 mmHg 35%

    19 December, Wednesday

    Time Temperature Precipitation Wind Pressure Humidity
    00:00 +8°C° 0 mm 3 mps 650 mmHg 35%
    01:00 +8°C° 0 mm 2 mps 650 mmHg 35%
    02:00 +7°C° 0 mm 2 mps 650 mmHg 37%
    03:00 +7°C° 0 mm 1 mps 650 mmHg 39%
    04:00 +7°C° 0 mm 1 mps 650 mmHg 41%
    05:00 +6°C° 0 mm 1 mps 651 mmHg 42%
    06:00 +6°C° 0 mm 1 mps 651 mmHg 43%
    07:00 +6°C° 0 mm 1 mps 652 mmHg 44%
    08:00 +7°C° 0 mm 1 mps 653 mmHg 42%
    09:00 +7°C° 0 mm 2 mps 653 mmHg 39%
    10:00 +9°C° 0 mm 2 mps 654 mmHg 36%
    11:00 +9°C° 0 mm 3 mps 654 mmHg 37%
    12:00 +10°C° 0 mm 3 mps 654 mmHg 37%
    13:00 +10°C° 0 mm 3 mps 654 mmHg 37%
    14:00 +10°C° 0 mm 3 mps 654 mmHg 38%
    15:00 +10°C° 0 mm 3 mps 654 mmHg 40%
    16:00 +10°C° 0 mm 3 mps 654 mmHg 41%
    17:00 +9°C° 0 mm 2 mps 654 mmHg 45%
    18:00 +8°C° 0 mm 2 mps 655 mmHg 49%
    19:00 +7°C° 0 mm 2 mps 655 mmHg 54%
    20:00 +8°C° 0 mm 1 mps 655 mmHg 56%
    21:00 +8°C° 0 mm 1 mps 655 mmHg 58%
    22:00 +7°C° 0 mm 1 mps 655 mmHg 60%
    23:00 +7°C° 0 mm 1 mps 655 mmHg 61%

    20 December, Thursday

    Time Temperature Precipitation Wind Pressure Humidity
    00:00 +5°C° 0 mm 0 mps 655 mmHg 62%
    01:00 +5°C° 0 mm 0 mps 654 mmHg 63%
    02:00 +5°C° 0 mm 0 mps 654 mmHg 64%
    03:00 +4°C° 0 mm 0 mps 654 mmHg 65%
    04:00 +4°C° 0 mm 0 mps 654 mmHg 65%
    05:00 +4°C° 0 mm 0 mps 654 mmHg 65%
    06:00 +5°C° 0 mm 1 mps 655 mmHg 65%
    07:00 +5°C° 0 mm 1 mps 655 mmHg 65%
    08:00 +6°C° 0 mm 1 mps 655 mmHg 60%
    09:00 +6°C° 0 mm 2 mps 655 mmHg 56%
    10:00 +7°C° 0 mm 2 mps 656 mmHg 51%
    11:00 +8°C° 0 mm 2 mps 655 mmHg 49%
    12:00 +9°C° 0 mm 2 mps 655 mmHg 46%
    13:00 +10°C° 0 mm 2 mps 654 mmHg 43%
    14:00 +10°C° 0 mm 2 mps 654 mmHg 43%
    15:00 +10°C° 0 mm 2 mps 654 mmHg 43%
    16:00 +10°C° 0 mm 2 mps 653 mmHg 43%
    17:00 +9°C° 0 mm 2 mps 653 mmHg 47%
    18:00 +8°C° 0 mm 2 mps 653 mmHg 51%
    19:00 +8°C° 0 mm 1 mps 653 mmHg 55%
    20:00 +8°C° 0 mm 1 mps 652 mmHg 55%
    21:00 +7°C° 0 mm 2 mps 652 mmHg 55%
    22:00 +6°C° 0 mm 2 mps 652 mmHg 55%
    23:00 +6°C° 0 mm 2 mps 651 mmHg 54%
    Show more